| time (UTC) | temp C | wind direction | speed KPH | gust KPH | rain 1hr cm | rain 24hr cm | rain mn cm | humidity % | barometer mb |
| 20260507160521 | 33 | 194 | 4.8 | 22.5 | 0.00 | 0.00 | 0.00 | 38 | 1014.9 |
| 20260507160039 | 32 | 213 | 4.8 | 22.5 | 0.00 | 0.00 | 0.00 | 38 | 1014.9 |
| 20260507155517 | 32 | 118 | 3.2 | 27.4 | 0.00 | 0.00 | 0.00 | 38 | 1014.9 |
| 20260507155107 | 32 | 269 | 3.2 | 27.4 | 0.00 | 0.00 | 0.00 | 35 | 1015.0 |
| 20260507154538 | 32 | 134 | 3.2 | 12.9 | 0.00 | 0.00 | 0.00 | 36 | 1015.0 |
| 20260507154017 | 32 | 234 | 3.2 | 20.9 | 0.00 | 0.00 | 0.00 | 35 | 1015.1 |
| 20260507153518 | 31 | 227 | 9.7 | 20.9 | 0.00 | 0.00 | 0.00 | 36 | 1015.0 |
| 20260507153036 | 32 | 201 | 1.6 | 17.7 | 0.00 | 0.00 | 0.00 | 39 | 1015.0 |
| 20260507152519 | 31 | 225 | 4.8 | 17.7 | 0.00 | 0.00 | 0.00 | 41 | 1015.0 |
| 20260507152020 | 31 | 262 | 3.2 | 12.9 | 0.00 | 0.00 | 0.00 | 45 | 1015.1 |
| 20260507151535 | 31 | 266 | 1.6 | 8.0 | 0.00 | 0.00 | 0.00 | 45 | 1015.0 |
| 20260507151020 | 31 | 215 | 1.6 | 12.9 | 0.00 | 0.00 | 0.00 | 45 | 1015.1 |
| 20260507150518 | 31 | 206 | 3.2 | 12.9 | 0.00 | 0.00 | 0.00 | 47 | 1015.1 |
| 20260507150038 | 31 | 200 | 3.2 | 11.3 | 0.00 | 0.00 | 0.00 | 46 | 1015.1 |
| 20260507145516 | 30 | 182 | 3.2 | 12.9 | 0.00 | 0.00 | 0.00 | 47 | 1015.1 |
| 20260507145019 | 31 | 122 | 3.2 | 12.9 | 0.00 | 0.00 | 0.00 | 48 | 1015.2 |
| 20260507144538 | 30 | 168 | 3.2 | 11.3 | 0.00 | 0.00 | 0.00 | 52 | 1015.1 |
| 20260507144017 | 30 | 159 | 1.6 | 12.9 | 0.00 | 0.00 | 0.00 | 56 | 1015.2 |
| 20260507143517 | 29 | 192 | 6.4 | 12.9 | 0.00 | 0.00 | 0.00 | 57 | 1015.1 |
| 20260507143038 | 29 | 169 | 3.2 | 11.3 | 0.00 | 0.00 | 0.00 | 57 | 1015.2 |
| 20260507142517 | 30 | 234 | 1.6 | 11.3 | 0.00 | 0.00 | 0.00 | 56 | 1015.1 |
| 20260507142017 | 29 | 51 | 3.2 | 17.7 | 0.00 | 0.00 | 0.00 | 60 | 1015.3 |
| 20260507141538 | 28 | 144 | 6.4 | 17.7 | 0.00 | 0.00 | 0.00 | 60 | 1015.3 |
| 20260507141017 | 28 | 136 | 8.0 | 14.5 | 0.00 | 0.00 | 0.00 | 61 | 1015.3 |
| 20260507140517 | 28 | 126 | 4.8 | 14.5 | 0.00 | 0.00 | 0.00 | 63 | 1015.3 |
| 20260507140044 | 28 | 146 | 6.4 | 14.5 | 0.00 | 0.00 | 0.00 | 64 | 1015.3 |
| 20260507135517 | 28 | 129 | 3.2 | 11.3 | 0.00 | 0.00 | 0.00 | 68 | 1015.2 |
| 20260507135021 | 27 | 155 | 1.6 | 14.5 | 0.00 | 0.00 | 0.00 | 69 | 1015.3 |
| 20260507134535 | 27 | 187 | 4.8 | 14.5 | 0.00 | 0.00 | 0.00 | 69 | 1015.3 |
| 20260507134020 | 27 | 182 | 1.6 | 11.3 | 0.00 | 0.00 | 0.00 | 69 | 1015.3 |
| 20260507133520 | 27 | 176 | 4.8 | 12.9 | 0.00 | 0.00 | 0.00 | 71 | 1015.4 |
| 20260507133042 | 26 | 131 | 6.4 | 12.9 | 0.00 | 0.00 | 0.00 | 73 | 1015.3 |
| 20260507132516 | 26 | 122 | 4.8 | 12.9 | 0.00 | 0.00 | 0.00 | 75 | 1015.2 |
| 20260507132020 | 26 | 121 | 4.8 | 12.9 | 0.00 | 0.00 | 0.00 | 75 | 1015.2 |
| 20260507131543 | 26 | 170 | 6.4 | 14.5 | 0.00 | 0.00 | 0.00 | 76 | 1015.3 |
| 20260507131017 | 25 | 169 | 3.2 | 14.5 | 0.00 | 0.00 | 0.00 | 78 | 1015.2 |
| 20260507130517 | 25 | 175 | 4.8 | 14.5 | 0.00 | 0.00 | 0.00 | 78 | 1015.2 |
| 20260507130038 | 25 | 138 | 4.8 | 12.9 | 0.00 | 0.00 | 0.00 | 78 | 1015.0 |
| 20260507125520 | 25 | 172 | 4.8 | 12.9 | 0.00 | 0.00 | 0.00 | 79 | 1015.1 |
| 20260507125017 | 24 | 115 | 4.8 | 12.9 | 0.00 | 0.00 | 0.00 | 80 | 1015.0 |
| 20260507124537 | 24 | 134 | 3.2 | 12.9 | 0.00 | 0.00 | 0.00 | 82 | 1015.0 |
| 20260507124021 | 23 | 111 | 4.8 | 12.9 | 0.00 | 0.00 | 0.00 | 83 | 1015.0 |
| 20260507123519 | 23 | 108 | 3.2 | 14.5 | 0.00 | 0.00 | 0.00 | 85 | 1015.0 |
| 20260507123036 | 23 | 165 | 4.8 | 14.5 | 0.00 | 0.00 | 0.00 | 86 | 1014.8 |
| 20260507122517 | 22 | 142 | 6.4 | 14.5 | 0.00 | 0.00 | 0.00 | 88 | 1014.9 |
| 20260507122017 | 22 | 144 | 3.2 | 12.9 | 0.00 | 0.00 | 0.00 | 91 | 1014.9 |
| 20260507121535 | 22 | 116 | 4.8 | 12.9 | 0.00 | 0.00 | 0.00 | 92 | 1014.8 |
| 20260507121017 | 21 | 150 | 1.6 | 9.7 | 0.00 | 0.00 | 0.00 | 94 | 1014.8 |
| 20260507120516 | 21 | 138 | 3.2 | 8.0 | 0.00 | 0.00 | 0.00 | 95 | 1014.9 |
| 20260507120043 | 20 | 94 | 1.6 | 6.4 | 0.00 | 0.00 | 0.00 | 95 | 1014.8 |
| 20260507115522 | 20 | 121 | 1.6 | 4.8 | 0.00 | 0.00 | 0.00 | 95 | 1014.8 |
| 20260507115021 | 20 | 136 | 0.0 | 3.2 | 0.00 | 0.00 | 0.00 | 95 | 1014.8 |
| 20260507114538 | 19 | 101 | 1.6 | 3.2 | 0.00 | 0.00 | 0.00 | 95 | 1014.9 |
| 20260507114016 | 18 | 0 | 0.0 | 1.6 | 0.00 | 0.00 | 0.00 | 95 | 1014.8 |
| 20260507113519 | 18 | 47 | 0.0 | 1.6 | 0.00 | 0.00 | 0.00 | 95 | 1014.8 |
| 20260507113040 | 18 | 0 | 0.0 | 0.0 | 0.00 | 0.00 | 0.00 | 95 | 1014.8 |
| 20260507112521 | 17 | 0 | 0.0 | 0.0 | 0.00 | 0.00 | 0.00 | 95 | 1014.7 |
| 20260507112020 | 18 | 0 | 0.0 | 0.0 | 0.00 | 0.00 | 0.00 | 95 | 1014.8 |
| 20260507111541 | 17 | 0 | 0.0 | 0.0 | 0.00 | 0.00 | 0.00 | 95 | 1014.7 |
| 20260507111020 | 17 | 0 | 0.0 | 0.0 | 0.00 | 0.00 | 0.00 | 95 | 1014.6 |
| 20260507110520 | 17 | 0 | 0.0 | 0.0 | 0.00 | 0.00 | 0.00 | 94 | 1014.6 |
| 20260507110037 | 18 | 0 | 0.0 | 0.0 | 0.00 | 0.00 | 0.00 | 95 | 1014.6 |
| 20260507105520 | 18 | 0 | 0.0 | 0.0 | 0.00 | 0.00 | 0.00 | 95 | 1014.5 |
| 20260507105017 | 18 | 0 | 0.0 | 0.0 | 0.00 | 0.00 | 0.00 | 95 | 1014.5 |
| 20260507104536 | 18 | 0 | 0.0 | 0.0 | 0.00 | 0.00 | 0.00 | 95 | 1014.4 |
| 20260507104017 | 18 | 0 | 0.0 | 0.0 | 0.00 | 0.00 | 0.00 | 95 | 1014.3 |
| 20260507103517 | 18 | 0 | 0.0 | 0.0 | 0.00 | 0.00 | 0.00 | 95 | 1014.3 |
| 20260507103042 | 18 | 0 | 0.0 | 0.0 | 0.00 | 0.00 | 0.00 | 95 | 1014.3 |
| 20260507102517 | 18 | 0 | 0.0 | 0.0 | 0.00 | 0.00 | 0.00 | 95 | 1014.3 |
| 20260507102017 | 18 | 0 | 0.0 | 0.0 | 0.00 | 0.00 | 0.00 | 95 | 1014.2 |
| 20260507101558 | 18 | 0 | 0.0 | 0.0 | 0.00 | 0.00 | 0.00 | 95 | 1014.3 |
| 20260507101016 | 18 | 0 | 0.0 | 0.0 | 0.00 | 0.00 | 0.00 | 95 | 1014.3 |
| 20260507100516 | 18 | 0 | 0.0 | 0.0 | 0.00 | 0.00 | 0.00 | 95 | 1014.3 |
| 20260507100039 | 17 | 0 | 0.0 | 0.0 | 0.00 | 0.00 | 0.00 | 95 | 1014.3 |
| 20260507095516 | 17 | 0 | 0.0 | 0.0 | 0.00 | 0.00 | 0.00 | 95 | 1014.3 |
| 20260507095017 | 18 | 0 | 0.0 | 0.0 | 0.00 | 0.00 | 0.00 | 95 | 1014.2 |
| 20260507094541 | 17 | 0 | 0.0 | 0.0 | 0.00 | 0.00 | 0.00 | 95 | 1014.2 |
| 20260507094017 | 17 | 0 | 0.0 | 0.0 | 0.00 | 0.00 | 0.00 | 95 | 1014.2 |
| 20260507093521 | 17 | 0 | 0.0 | 0.0 | 0.00 | 0.00 | 0.00 | 95 | 1014.1 |
| 20260507093036 | 18 | 0 | 0.0 | 0.0 | 0.00 | 0.00 | 0.00 | 95 | 1014.1 |
| 20260507092525 | 18 | 0 | 0.0 | 0.0 | 0.00 | 0.00 | 0.00 | 95 | 1014.0 |
| 20260507092019 | 17 | 0 | 0.0 | 0.0 | 0.00 | 0.00 | 0.00 | 95 | 1013.9 |
| 20260507091555 | 18 | 0 | 0.0 | 0.0 | 0.00 | 0.00 | 0.00 | 95 | 1013.8 |
| 20260507091020 | 17 | 0 | 0.0 | 0.0 | 0.00 | 0.00 | 0.00 | 95 | 1014.0 |
| 20260507090521 | 18 | 0 | 0.0 | 0.0 | 0.00 | 0.00 | 0.00 | 95 | 1013.9 |
| 20260507090038 | 18 | 0 | 0.0 | 0.0 | 0.00 | 0.00 | 0.00 | 95 | 1013.7 |
| 20260507085517 | 18 | 0 | 0.0 | 0.0 | 0.00 | 0.00 | 0.00 | 95 | 1013.6 |
| 20260507085017 | 18 | 0 | 0.0 | 0.0 | 0.00 | 0.00 | 0.00 | 95 | 1013.8 |
| 20260507084541 | 18 | 0 | 0.0 | 0.0 | 0.00 | 0.00 | 0.00 | 95 | 1013.8 |
| 20260507084020 | 18 | 0 | 0.0 | 0.0 | 0.00 | 0.00 | 0.00 | 95 | 1013.8 |
| 20260507083520 | 18 | 0 | 0.0 | 0.0 | 0.00 | 0.00 | 0.00 | 95 | 1013.8 |
| 20260507083041 | 18 | 0 | 0.0 | 0.0 | 0.00 | 0.00 | 0.00 | 95 | 1013.9 |
| 20260507082521 | 18 | 0 | 0.0 | 0.0 | 0.00 | 0.00 | 0.00 | 95 | 1013.9 |
| 20260507082020 | 18 | 0 | 0.0 | 0.0 | 0.00 | 0.00 | 0.00 | 95 | 1013.8 |
| 20260507081550 | 18 | 0 | 0.0 | 0.0 | 0.00 | 0.00 | 0.00 | 95 | 1013.8 |
| 20260507081020 | 18 | 0 | 0.0 | 0.0 | 0.00 | 0.00 | 0.00 | 95 | 1013.9 |
| 20260507080519 | 18 | 0 | 0.0 | 0.0 | 0.00 | 0.00 | 0.00 | 95 | 1013.7 |
| 20260507080036 | 18 | 0 | 0.0 | 0.0 | 0.00 | 0.00 | 0.00 | 95 | 1013.8 |
| 20260507075520 | 19 | 0 | 0.0 | 0.0 | 0.00 | 0.00 | 0.00 | 95 | 1013.6 |
| 20260507075020 | 19 | 0 | 0.0 | 0.0 | 0.00 | 0.00 | 0.00 | 95 | 1013.5 |
| 20260507074539 | 18 | 0 | 0.0 | 0.0 | 0.00 | 0.00 | 0.00 | 95 | 1013.5 |
| 20260507074016 | 18 | 0 | 0.0 | 0.0 | 0.00 | 0.00 | 0.00 | 95 | 1013.6 |
| 20260507073517 | 18 | 0 | 0.0 | 3.2 | 0.00 | 0.00 | 0.00 | 94 | 1013.6 |
| 20260507073044 | 18 | 0 | 0.0 | 3.2 | 0.00 | 0.00 | 0.00 | 94 | 1013.7 |
| 20260507072517 | 19 | 238 | 1.6 | 3.2 | 0.00 | 0.00 | 0.00 | 94 | 1013.7 |
| 20260507072024 | 19 | 0 | 0.0 | 1.6 | 0.00 | 0.00 | 0.00 | 94 | 1013.7 |
| 20260507071543 | 19 | 0 | 0.0 | 0.0 | 0.00 | 0.00 | 0.00 | 94 | 1013.5 |
| 20260507071020 | 20 | 0 | 0.0 | 0.0 | 0.00 | 0.00 | 0.00 | 94 | 1013.7 |
| 20260507070520 | 20 | 0 | 0.0 | 0.0 | 0.00 | 0.00 | 0.00 | 93 | 1013.8 |
| 20260507070055 | 20 | 0 | 0.0 | 0.0 | 0.00 | 0.00 | 0.00 | 94 | 1013.6 |
| 20260507065520 | 20 | 0 | 0.0 | 0.0 | 0.00 | 0.00 | 0.00 | 94 | 1013.8 |
| 20260507065020 | 20 | 0 | 0.0 | 0.0 | 0.00 | 0.00 | 0.00 | 94 | 1013.9 |
| 20260507064539 | 19 | 0 | 0.0 | 0.0 | 0.00 | 0.00 | 0.00 | 94 | 1014.1 |
| 20260507064020 | 19 | 0 | 0.0 | 0.0 | 0.00 | 0.00 | 0.00 | 93 | 1014.1 |
| 20260507063519 | 19 | 0 | 0.0 | 0.0 | 0.00 | 0.00 | 0.00 | 93 | 1014.3 |
| 20260507063036 | 19 | 0 | 0.0 | 0.0 | 0.00 | 0.00 | 0.00 | 93 | 1014.5 |
| 20260507062520 | 20 | 0 | 0.0 | 0.0 | 0.00 | 0.00 | 0.00 | 93 | 1014.5 |
| 20260507062020 | 20 | 0 | 0.0 | 0.0 | 0.00 | 0.00 | 0.00 | 93 | 1014.5 |
| 20260507061535 | 20 | 0 | 0.0 | 0.0 | 0.00 | 0.00 | 0.00 | 93 | 1014.7 |
| 20260507061019 | 20 | 0 | 0.0 | 0.0 | 0.00 | 0.00 | 0.00 | 93 | 1014.8 |
| 20260507060519 | 20 | 0 | 0.0 | 0.0 | 0.00 | 0.00 | 0.00 | 93 | 1014.7 |
| 20260507060035 | 20 | 0 | 0.0 | 0.0 | 0.00 | 0.00 | 0.00 | 94 | 1014.6 |
| 20260507055519 | 20 | 0 | 0.0 | 0.0 | 0.00 | 0.00 | 0.00 | 93 | 1015.0 |
| 20260507055024 | 20 | 0 | 0.0 | 0.0 | 0.00 | 0.00 | 0.00 | 94 | 1015.0 |
| 20260507054538 | 20 | 0 | 0.0 | 0.0 | 0.00 | 0.00 | 0.00 | 94 | 1015.1 |
| 20260507054017 | 20 | 0 | 0.0 | 0.0 | 0.00 | 0.00 | 0.00 | 93 | 1015.0 |
| 20260507053521 | 20 | 0 | 0.0 | 0.0 | 0.00 | 0.00 | 0.00 | 93 | 1015.1 |
| 20260507053043 | 19 | 0 | 0.0 | 0.0 | 0.00 | 0.00 | 0.00 | 93 | 1015.1 |
| 20260507052520 | 20 | 0 | 0.0 | 0.0 | 0.00 | 0.00 | 0.00 | 93 | 1015.2 |
| 20260507052018 | 20 | 0 | 0.0 | 0.0 | 0.00 | 0.00 | 0.00 | 93 | 1015.1 |
| 20260507051537 | 20 | 0 | 0.0 | 0.0 | 0.00 | 0.00 | 0.00 | 93 | 1015.2 |
| 20260507051021 | 20 | 0 | 0.0 | 1.6 | 0.00 | 0.00 | 0.00 | 92 | 1015.2 |
| 20260507050522 | 20 | 0 | 0.0 | 1.6 | 0.00 | 0.00 | 0.00 | 93 | 1015.2 |
| 20260507050036 | 20 | 0 | 0.0 | 0.0 | 0.00 | 0.00 | 0.00 | 93 | 1015.2 |
| 20260507045522 | 20 | 0 | 0.0 | 0.0 | 0.00 | 0.00 | 0.00 | 92 | 1015.3 |
| 20260507045023 | 20 | 0 | 0.0 | 0.0 | 0.00 | 0.00 | 0.00 | 92 | 1015.3 |
| 20260507044544 | 20 | 0 | 0.0 | 0.0 | 0.00 | 0.00 | 0.00 | 92 | 1015.4 |
| 20260507044020 | 21 | 0 | 0.0 | 0.0 | 0.00 | 0.00 | 0.00 | 93 | 1015.3 |
| 20260507043521 | 21 | 0 | 0.0 | 0.0 | 0.00 | 0.00 | 0.00 | 93 | 1015.5 |
| 20260507043042 | 21 | 0 | 0.0 | 0.0 | 0.00 | 0.00 | 0.00 | 92 | 1015.6 |
| 20260507042520 | 21 | 0 | 0.0 | 0.0 | 0.00 | 0.00 | 0.00 | 92 | 1015.6 |
| 20260507042019 | 21 | 0 | 0.0 | 0.0 | 0.00 | 0.00 | 0.00 | 92 | 1015.7 |
| 20260507041538 | 20 | 0 | 0.0 | 0.0 | 0.00 | 0.00 | 0.00 | 91 | 1015.9 |
| 20260507041020 | 21 | 0 | 0.0 | 0.0 | 0.00 | 0.00 | 0.00 | 92 | 1016.0 |
| 20260507040521 | 21 | 0 | 0.0 | 0.0 | 0.00 | 0.00 | 0.00 | 91 | 1015.6 |
| 20260507040041 | 21 | 0 | 0.0 | 0.0 | 0.00 | 0.00 | 0.00 | 91 | 1015.7 |
| 20260507035520 | 21 | 0 | 0.0 | 0.0 | 0.00 | 0.00 | 0.00 | 91 | 1015.6 |
| 20260507035020 | 21 | 0 | 0.0 | 0.0 | 0.00 | 0.00 | 0.00 | 90 | 1015.8 |
| 20260507034538 | 21 | 0 | 0.0 | 0.0 | 0.00 | 0.00 | 0.00 | 91 | 1015.8 |
| 20260507034020 | 21 | 0 | 0.0 | 0.0 | 0.00 | 0.00 | 0.00 | 91 | 1015.6 |
| 20260507033520 | 22 | 0 | 0.0 | 0.0 | 0.00 | 0.00 | 0.00 | 91 | 1015.6 |
| 20260507033035 | 22 | 0 | 0.0 | 0.0 | 0.00 | 0.00 | 0.00 | 90 | 1015.6 |
| 20260507032521 | 22 | 0 | 0.0 | 0.0 | 0.00 | 0.00 | 0.00 | 90 | 1015.7 |
| 20260507032019 | 22 | 0 | 0.0 | 0.0 | 0.00 | 0.00 | 0.00 | 90 | 1015.7 |
| 20260507031543 | 22 | 0 | 0.0 | 0.0 | 0.00 | 0.00 | 0.00 | 89 | 1015.8 |
| 20260507031020 | 22 | 0 | 0.0 | 0.0 | 0.00 | 0.00 | 0.00 | 88 | 1015.9 |
| 20260507030520 | 22 | 0 | 0.0 | 0.0 | 0.00 | 0.00 | 0.00 | 88 | 1015.8 |
| 20260507030042 | 22 | 0 | 0.0 | 0.0 | 0.00 | 0.00 | 0.00 | 87 | 1015.8 |
| 20260507025520 | 22 | 0 | 0.0 | 0.0 | 0.00 | 0.00 | 0.00 | 86 | 1015.8 |
| 20260507025020 | 23 | 0 | 0.0 | 0.0 | 0.00 | 0.00 | 0.00 | 86 | 1015.8 |
| 20260507024538 | 23 | 0 | 0.0 | 3.2 | 0.00 | 0.00 | 0.00 | 85 | 1015.7 |
| 20260507024019 | 23 | 0 | 0.0 | 4.8 | 0.00 | 0.00 | 0.00 | 85 | 1015.6 |
| 20260507023520 | 23 | 117 | 1.6 | 4.8 | 0.00 | 0.00 | 0.00 | 85 | 1015.5 |
| 20260507023038 | 23 | 134 | 1.6 | 4.8 | 0.00 | 0.00 | 0.00 | 85 | 1015.4 |
| 20260507022520 | 23 | 0 | 0.0 | 1.6 | 0.00 | 0.00 | 0.00 | 84 | 1015.3 |
| 20260507022021 | 23 | 0 | 0.0 | 3.2 | 0.00 | 0.00 | 0.00 | 85 | 1015.2 |
| 20260507021537 | 23 | 0 | 0.0 | 6.4 | 0.00 | 0.00 | 0.00 | 84 | 1015.0 |
| 20260507021020 | 23 | 267 | 1.6 | 9.7 | 0.00 | 0.00 | 0.00 | 84 | 1015.0 |
| 20260507020520 | 23 | 264 | 3.2 | 12.9 | 0.00 | 0.00 | 0.00 | 83 | 1015.0 |
| 20260507020035 | 23 | 284 | 3.2 | 12.9 | 0.00 | 0.00 | 0.00 | 82 | 1015.1 |
| 20260507015519 | 24 | 261 | 6.4 | 12.9 | 0.00 | 0.00 | 0.00 | 82 | 1015.0 |
| 20260507015020 | 24 | 281 | 4.8 | 12.9 | 0.00 | 0.00 | 0.00 | 81 | 1015.0 |
| 20260507014553 | 24 | 264 | 3.2 | 12.9 | 0.00 | 0.00 | 0.00 | 80 | 1015.0 |
| 20260507014018 | 24 | 279 | 6.4 | 12.9 | 0.00 | 0.00 | 0.00 | 80 | 1014.8 |
| 20260507013519 | 24 | 290 | 6.4 | 11.3 | 0.00 | 0.00 | 0.00 | 79 | 1014.8 |
| 20260507013041 | 25 | 261 | 4.8 | 11.3 | 0.00 | 0.00 | 0.00 | 78 | 1014.7 |
| 20260507012521 | 25 | 284 | 3.2 | 11.3 | 0.00 | 0.00 | 0.00 | 77 | 1014.6 |
| 20260507012023 | 25 | 274 | 4.8 | 11.3 | 0.00 | 0.00 | 0.00 | 76 | 1014.8 |
| 20260507011541 | 25 | 283 | 4.8 | 11.3 | 0.00 | 0.00 | 0.00 | 75 | 1014.8 |
| 20260507011020 | 25 | 289 | 4.8 | 11.3 | 0.00 | 0.00 | 0.00 | 75 | 1014.9 |
| 20260507010523 | 25 | 288 | 4.8 | 11.3 | 0.00 | 0.00 | 0.00 | 74 | 1014.9 |
| 20260507010042 | 25 | 259 | 6.4 | 11.3 | 0.00 | 0.00 | 0.00 | 74 | 1014.7 |
| 20260507005526 | 25 | 291 | 4.8 | 11.3 | 0.00 | 0.00 | 0.00 | 74 | 1014.7 |
| 20260507005025 | 25 | 265 | 6.4 | 14.5 | 0.00 | 0.00 | 0.00 | 73 | 1014.7 |
| 20260507004541 | 26 | 271 | 6.4 | 14.5 | 0.00 | 0.00 | 0.00 | 73 | 1014.7 |
| 20260507004020 | 26 | 263 | 8.0 | 14.5 | 0.00 | 0.00 | 0.00 | 73 | 1014.6 |
| 20260507003518 | 26 | 254 | 8.0 | 14.5 | 0.00 | 0.00 | 0.00 | 73 | 1014.6 |
| 20260507003035 | 26 | 261 | 6.4 | 14.5 | 0.00 | 0.00 | 0.00 | 74 | 1014.6 |
| 20260507002522 | 26 | 267 | 8.0 | 14.5 | 0.00 | 0.00 | 0.00 | 73 | 1014.5 |
| 20260507002020 | 26 | 273 | 6.4 | 16.1 | 0.00 | 0.00 | 0.00 | 73 | 1014.4 |
| 20260507001534 | 26 | 271 | 9.7 | 17.7 | 0.00 | 0.00 | 0.00 | 73 | 1014.4 |
| 20260507001022 | 27 | 285 | 8.0 | 17.7 | 0.00 | 0.00 | 0.00 | 72 | 1014.2 |
| 20260507000518 | 27 | 270 | 11.3 | 17.7 | 0.00 | 0.00 | 0.00 | 72 | 1014.3 |
| 20260507000044 | 27 | 285 | 9.7 | 16.1 | 0.00 | 0.00 | 0.00 | 71 | 1014.3 |
| 20260506235518 | 27 | 267 | 8.0 | 16.1 | 0.00 | 0.00 | 0.00 | 71 | 1014.2 |
| 20260506235017 | 27 | 269 | 8.0 | 16.1 | 0.00 | 0.00 | 0.00 | 71 | 1014.1 |
| 20260506234541 | 27 | 276 | 6.4 | 20.9 | 0.00 | 0.00 | 0.00 | 70 | 1014.2 |
| 20260506234018 | 28 | 290 | 11.3 | 20.9 | 0.00 | 0.00 | 0.00 | 68 | 1014.2 |
| 20260506233518 | 28 | 279 | 14.5 | 20.9 | 0.00 | 0.00 | 0.00 | 68 | 1014.1 |
| 20260506233037 | 28 | 265 | 11.3 | 16.1 | 0.00 | 0.00 | 0.00 | 69 | 1014.1 |
| 20260506232517 | 28 | 263 | 6.4 | 16.1 | 0.00 | 0.00 | 0.00 | 69 | 1014.2 |
| 20260506232017 | 28 | 279 | 9.7 | 17.7 | 0.00 | 0.00 | 0.00 | 68 | 1014.1 |
| 20260506231537 | 28 | 255 | 11.3 | 20.9 | 0.00 | 0.00 | 0.00 | 67 | 1014.1 |
| 20260506231021 | 28 | 267 | 11.3 | 22.5 | 0.00 | 0.00 | 0.00 | 67 | 1014.2 |
| 20260506230518 | 29 | 261 | 14.5 | 22.5 | 0.00 | 0.00 | 0.00 | 66 | 1014.0 |
| 20260506230036 | 29 | 268 | 11.3 | 17.7 | 0.00 | 0.00 | 0.00 | 65 | 1014.0 |
| 20260506225517 | 29 | 285 | 8.0 | 22.5 | 0.00 | 0.00 | 0.00 | 65 | 1013.9 |
| 20260506225018 | 30 | 281 | 11.3 | 22.5 | 0.00 | 0.00 | 0.00 | 65 | 1013.9 |
| 20260506224543 | 30 | 288 | 9.7 | 22.5 | 0.00 | 0.00 | 0.00 | 65 | 1013.9 |
| 20260506224017 | 30 | 280 | 12.9 | 22.5 | 0.00 | 0.00 | 0.00 | 65 | 1013.9 |
| 20260506223517 | 30 | 254 | 14.5 | 22.5 | 0.00 | 0.00 | 0.00 | 63 | 1013.9 |
| 20260506223041 | 30 | 252 | 12.9 | 20.9 | 0.00 | 0.00 | 0.00 | 63 | 1013.9 |
| 20260506222518 | 31 | 286 | 14.5 | 20.9 | 0.00 | 0.00 | 0.00 | 62 | 1013.9 |
| 20260506222018 | 31 | 273 | 11.3 | 20.9 | 0.00 | 0.00 | 0.00 | 62 | 1013.8 |
| 20260506221544 | 31 | 282 | 11.3 | 27.4 | 0.00 | 0.00 | 0.00 | 61 | 1013.9 |
| 20260506221017 | 32 | 256 | 16.1 | 27.4 | 0.00 | 0.00 | 0.00 | 56 | 1013.8 |
| 20260506220517 | 33 | 285 | 4.8 | 11.3 | 0.00 | 0.00 | 0.00 | 43 | 1013.8 |
| 20260506220042 | 32 | 244 | 3.2 | 9.7 | 0.00 | 0.00 | 0.00 | 43 | 1013.9 |
| 20260506215517 | 33 | 243 | 1.6 | 11.3 | 0.00 | 0.00 | 0.00 | 41 | 1013.8 |
| 20260506215017 | 34 | 258 | 1.6 | 14.5 | 0.00 | 0.00 | 0.00 | 40 | 1013.8 |
| 20260506214538 | 34 | 254 | 9.7 | 14.5 | 0.00 | 0.00 | 0.00 | 41 | 1013.7 |
| 20260506214016 | 33 | 278 | 0.0 | 4.8 | 0.00 | 0.00 | 0.00 | 39 | 1013.7 |
| 20260506213517 | 34 | 0 | 0.0 | 11.3 | 0.00 | 0.00 | 0.00 | 38 | 1013.8 |
| 20260506213036 | 34 | 0 | 3.2 | 14.5 | 0.00 | 0.00 | 0.00 | 39 | 1013.9 |
| 20260506212517 | 34 | 276 | 1.6 | 14.5 | 0.00 | 0.00 | 0.00 | 39 | 1013.9 |
| 20260506212019 | 35 | 248 | 3.2 | 8.0 | 0.00 | 0.00 | 0.00 | 37 | 1014.0 |
| 20260506211542 | 34 | 172 | 0.0 | 11.3 | 0.00 | 0.00 | 0.00 | 39 | 1013.9 |
| 20260506211018 | 34 | 160 | 1.6 | 11.3 | 0.00 | 0.00 | 0.00 | 40 | 1013.9 |
| 20260506210520 | 34 | 278 | 1.6 | 9.7 | 0.00 | 0.00 | 0.00 | 40 | 1013.9 |
| 20260506210044 | 34 | 43 | 4.8 | 12.9 | 0.00 | 0.00 | 0.00 | 38 | 1013.9 |
| 20260506205520 | 35 | 58 | 4.8 | 12.9 | 0.00 | 0.00 | 0.00 | 38 | 1013.9 |
| 20260506205018 | 35 | 103 | 1.6 | 11.3 | 0.00 | 0.00 | 0.00 | 38 | 1013.9 |
| 20260506204541 | 35 | 188 | 1.6 | 11.3 | 0.00 | 0.00 | 0.00 | 37 | 1013.9 |
| 20260506204017 | 35 | 222 | 1.6 | 14.5 | 0.00 | 0.00 | 0.00 | 38 | 1013.9 |
| 20260506203517 | 34 | 263 | 3.2 | 14.5 | 0.00 | 0.00 | 0.00 | 39 | 1013.9 |
| 20260506203048 | 34 | 158 | 3.2 | 14.5 | 0.00 | 0.00 | 0.00 | 40 | 1013.9 |
| 20260506202517 | 33 | 0 | 0.0 | 8.0 | 0.00 | 0.00 | 0.00 | 43 | 1014.0 |
| 20260506202017 | 33 | 170 | 0.0 | 6.4 | 0.00 | 0.00 | 0.00 | 41 | 1014.0 |
| 20260506201545 | 33 | 0 | 1.6 | 12.9 | 0.00 | 0.00 | 0.00 | 42 | 1014.1 |
| 20260506201018 | 32 | 298 | 1.6 | 16.1 | 0.00 | 0.00 | 0.00 | 42 | 1014.0 |
| 20260506200517 | 33 | 293 | 8.0 | 17.7 | 0.00 | 0.00 | 0.00 | 39 | 1014.1 |
| 20260506200037 | 34 | 263 | 11.3 | 17.7 | 0.00 | 0.00 | 0.00 | 40 | 1014.1 |
| 20260506195520 | 34 | 266 | 9.7 | 17.7 | 0.00 | 0.00 | 0.00 | 38 | 1014.1 |
| 20260506195020 | 34 | 182 | 0.0 | 4.8 | 0.00 | 0.00 | 0.00 | 39 | 1014.1 |
| 20260506194540 | 35 | 0 | 0.0 | 4.8 | 0.00 | 0.00 | 0.00 | 39 | 1014.2 |
| 20260506194018 | 33 | 98 | 0.0 | 4.8 | 0.00 | 0.00 | 0.00 | 38 | 1014.2 |
| 20260506193518 | 34 | 211 | 1.6 | 11.3 | 0.00 | 0.00 | 0.00 | 39 | 1014.3 |
| 20260506193042 | 34 | 53 | 1.6 | 12.9 | 0.00 | 0.00 | 0.00 | 38 | 1014.4 |
| 20260506192524 | 34 | 142 | 6.4 | 12.9 | 0.00 | 0.00 | 0.00 | 39 | 1014.5 |
| 20260506192020 | 34 | 242 | 1.6 | 11.3 | 0.00 | 0.00 | 0.00 | 40 | 1014.4 |
| 20260506191541 | 34 | 182 | 1.6 | 11.3 | 0.00 | 0.00 | 0.00 | 39 | 1014.6 |
| 20260506191017 | 35 | 213 | 3.2 | 11.3 | 0.00 | 0.00 | 0.00 | 40 | 1014.6 |
| 20260506190517 | 35 | 0 | 3.2 | 11.3 | 0.00 | 0.00 | 0.00 | 41 | 1014.6 |
| 20260506190038 | 34 | 278 | 1.6 | 12.9 | 0.00 | 0.00 | 0.00 | 41 | 1014.7 |
| 20260506185519 | 34 | 117 | 3.2 | 12.9 | 0.00 | 0.00 | 0.00 | 40 | 1014.8 |
| 20260506185020 | 34 | 150 | 3.2 | 12.9 | 0.00 | 0.00 | 0.00 | 41 | 1014.9 |
| 20260506184547 | 35 | 59 | 1.6 | 11.3 | 0.00 | 0.00 | 0.00 | 38 | 1014.9 |
| 20260506184017 | 33 | 121 | 4.8 | 12.9 | 0.00 | 0.00 | 0.00 | 40 | 1015.0 |
| 20260506183518 | 33 | 85 | 3.2 | 14.5 | 0.00 | 0.00 | 0.00 | 40 | 1015.1 |
| 20260506183034 | 33 | 167 | 6.4 | 14.5 | 0.00 | 0.00 | 0.00 | 42 | 1015.3 |
| 20260506182520 | 33 | 130 | 3.2 | 12.9 | 0.00 | 0.00 | 0.00 | 43 | 1015.3 |
| 20260506182018 | 33 | 262 | 4.8 | 12.9 | 0.00 | 0.00 | 0.00 | 42 | 1015.3 |
| 20260506181541 | 34 | 168 | 1.6 | 9.7 | 0.00 | 0.00 | 0.00 | 42 | 1015.2 |
| 20260506181017 | 33 | 170 | 1.6 | 12.9 | 0.00 | 0.00 | 0.00 | 44 | 1015.2 |
| 20260506180522 | 33 | 50 | 1.6 | 12.9 | 0.00 | 0.00 | 0.00 | 42 | 1015.2 |
| 20260506180040 | 33 | 107 | 4.8 | 12.9 | 0.00 | 0.00 | 0.00 | 44 | 1015.3 |
| 20260506175521 | 33 | 120 | 4.8 | 12.9 | 0.00 | 0.00 | 0.00 | 42 | 1015.4 |
| 20260506175020 | 33 | 119 | 6.4 | 12.9 | 0.00 | 0.00 | 0.00 | 44 | 1015.4 |
| 20260506174538 | 33 | 142 | 3.2 | 14.5 | 0.00 | 0.00 | 0.00 | 42 | 1015.5 |
| 20260506174019 | 32 | 0 | 1.6 | 14.5 | 0.00 | 0.00 | 0.00 | 43 | 1015.6 |
| 20260506173520 | 32 | 181 | 4.8 | 14.5 | 0.00 | 0.00 | 0.00 | 45 | 1015.7 |
| 20260506173046 | 32 | 285 | 4.8 | 19.3 | 0.00 | 0.00 | 0.00 | 47 | 1015.7 |
| 20260506172517 | 33 | 176 | 4.8 | 19.3 | 0.00 | 0.00 | 0.00 | 46 | 1015.8 |
| 20260506172024 | 32 | 132 | 1.6 | 9.7 | 0.00 | 0.00 | 0.00 | 48 | 1015.7 |
| 20260506171550 | 33 | 273 | 3.2 | 17.7 | 0.00 | 0.00 | 0.00 | 45 | 1015.8 |
| 20260506171021 | 32 | 174 | 3.2 | 19.3 | 0.00 | 0.00 | 0.00 | 48 | 1015.9 |
| 20260506170521 | 31 | 268 | 9.7 | 19.3 | 0.00 | 0.00 | 0.00 | 49 | 1015.9 |
| 20260506170035 | 31 | 269 | 3.2 | 12.9 | 0.00 | 0.00 | 0.00 | 47 | 1015.9 |
| 20260506165521 | 31 | 241 | 0.0 | 16.1 | 0.00 | 0.00 | 0.00 | 48 | 1015.9 |
| 20260506165020 | 32 | 257 | 3.2 | 16.1 | 0.00 | 0.00 | 0.00 | 47 | 1016.0 |
| 20260506164543 | 32 | 166 | 3.2 | 16.1 | 0.00 | 0.00 | 0.00 | 48 | 1016.0 |
| 20260506164023 | 31 | 76 | 4.8 | 16.1 | 0.00 | 0.00 | 0.00 | 47 | 1016.0 |
| 20260506163523 | 32 | 164 | 4.8 | 14.5 | 0.00 | 0.00 | 0.00 | 48 | 1016.2 |
| 20260506163058 | 32 | 27 | 3.2 | 11.3 | 0.00 | 0.00 | 0.00 | 45 | 1016.2 |
| 20260506162522 | 31 | 135 | 3.2 | 14.5 | 0.00 | 0.00 | 0.00 | 50 | 1016.3 |
| 20260506162017 | 31 | 66 | 4.8 | 14.5 | 0.00 | 0.00 | 0.00 | 50 | 1016.3 |
| 20260506161544 | 31 | 104 | 3.2 | 14.5 | 0.00 | 0.00 | 0.00 | 49 | 1016.4 |
| 20260506161017 | 30 | 219 | 3.2 | 9.7 | 0.00 | 0.00 | 0.00 | 51 | 1016.5 |